This demonstration page uses our WeatherBlox Daily Observations layout. Learn more.

Left ArrowRight Arrow

Hourly Observations for April 21, 2015

Temp ( °F °C ) Dew Point ( °F °C ) Humidity (%) Winds ( mph kmh ) Pressure ( in mb ) Visibility ( mi km ) Precip ( " mm )
12:51 am 00:51 Clear 69 20.6 17 -8.3 14 14 NNW 13 20 29.72 1006 10 16 N/A
1:51 am 01:51 Clear 66 18.9 22 -5.6 19 19 NNW 13 20 29.72 1007 10 16 N/A
2:51 am 02:51 Clear 63 17.2 22 -5.6 21 21 NNW 10 17 29.74 1007 10 16 N/A
3:51 am 03:51 Clear 63 17.2 23 -5 22 22 NNW 9 15 29.74 1007 10 16 N/A
4:51 am 04:51 Clear 57 13.9 23 -5 27 27 W 8 13 29.77 1008 10 16 N/A
5:51 am 05:51 Sunny 56 13.3 23 -5 28 28 N N/A 29.80 1009 10 16 N/A
6:51 am 06:51 Sunny 59 15 25 -3.9 27 27 E 7 11 29.82 1010 10 16 N/A
7:51 am 07:51 Sunny 67 19.4 24 -4.4 20 20 SE 7 11 29.82 1010 10 16 N/A
8:51 am 08:51 Sunny 71 21.7 24 -4.4 17 17 VRB 5 7 29.83 1010 10 16 N/A
9:51 am 09:51 Sunny 74 23.3 24 -4.4 15 15 N N/A 29.82 1010 10 16 N/A
10:51 am 10:51 Sunny 77 25 24 -4.4 14 14 SE 8 13 29.80 1009 10 16 N/A
11:51 am 11:51 Sunny 80 26.7 22 -5.6 11 11 undefined N/A 29.75 1008 10 16 N/A
12:51 pm 12:51 Sunny 81 27.2 21 -6.1 11 11 SW 5 7 29.71 1006 10 16 N/A
1:51 pm 13:51 Sunny 82 27.8 16 -8.9 8 8 SSE 7 11 29.69 1005 10 16 N/A
2:51 pm 14:51 Sunny 84 28.9 10 -12.2 6 6 S 8 13 29.66 1004 10 16 N/A
3:51 pm 15:51 Sunny 82 27.8 12 -11.1 7 7 SSW 5 7 29.64 1004 10 16 N/A
4:51 pm 16:51 Sunny 83 28.3 11 -11.7 6 6 SW 10 17 29.63 1004 10 16 N/A
5:51 pm 17:51 Sunny 82 27.8 10 -12.2 6 6 SSW 13 20 29.63 1004 10 16 N/A
6:51 pm 18:51 Sunny 77 25 16 -8.9 10 10 S 7 11 29.64 1004 10 16 N/A
7:51 pm 19:51 Clear 73 22.8 17 -8.3 12 12 W 5 7 29.65 1004 10 16 N/A
8:51 pm 20:51 Clear 69 20.6 17 -8.3 14 14 NNW 12 19 29.67 1005 10 16 N/A
9:51 pm 21:51 Clear 70 21.1 15 -9.4 12 12 NNW 13 20 29.68 1005 10 16 N/A
10:51 pm 22:51 Clear 64 17.8 14 -10 14 14 NW 8 13 29.70 1006 10 16 N/A
11:51 pm 23:51 Clear 65 18.3 15 -9.4 14 14 NW 13 20 29.71 1006 10 16 N/A

Powered by AerisWeather